Welcome to Des Moines Iowa Weather. I am an independent private personal weather station on the Northwest Side of Des Moines, Iowa. Just East of Windsor Heights and just West of Glendale . This site is also mobile friendly.

There are no active watches, warnings or advisories


Visit our other weather sites:

Historical Data

Weather Station Setup



Weather Underground History page Text

Daily Summary for January 23, 2018 Units:  Metric    English   Both
« Previous Day
Next Day »
Daily Weekly Monthly Yearly Custom
  High: Low: Average:
Temperature: -1.7 °C -3.9 °C -2.9 °C
Dew Point: -2.8 °C -6.1 °C -4.8 °C
Humidity: 94 % 79 % 86 %
Wind Speed: 19.3 km/h 0 km/h 5.6 km/h
Wind Gust: 32.2 km/h - -
Wind:- - North
Pressure: 1024.6 hPa 1007 hPa -
Precipitation: 0 mm    
Historical Graphs
 
 
Tabular Data for January 23, 2018
Time Temperature Dew Point Pressure Wind Wind Speed Wind Gust Humidity Rainfall Rate (Hourly)
00:24 -1.7 °C -2.8 °C 1007 hPa North 16.1 km/h 27.4 km/h 94 % 0 mm
00:39 -1.8 °C -2.8 °C 1007.3 hPa North 14.5 km/h 30.6 km/h 94 % 0 mm
00:54 -1.9 °C -2.8 °C 1008 hPa North 4.8 km/h 25.7 km/h 94 % 0 mm
01:09 -2 °C -2.8 °C 1008.4 hPa North 4.8 km/h 24.1 km/h 94 % 0 mm
01:24 -2 °C -2.8 °C 1008.7 hPa North 9.7 km/h 24.1 km/h 94 % 0 mm
01:39 -2 °C -2.8 °C 1009 hPa North 8 km/h 32.2 km/h 94 % 0 mm
01:54 -2 °C -2.8 °C 1009.4 hPa North 12.9 km/h 20.9 km/h 94 % 0 mm
02:10 -1.9 °C -2.8 °C 1009.7 hPa North 3.2 km/h 27.4 km/h 93 % 0 mm
02:40 -1.7 °C -2.8 °C 1010.7 hPa North 16.1 km/h 22.5 km/h 92 % 0 mm
02:55 -1.7 °C -2.8 °C 1011.1 hPa North 16.1 km/h 29 km/h 91 % 0 mm
03:10 -1.7 °C -2.8 °C 1011.4 hPa North 6.4 km/h 30.6 km/h 90 % 0 mm
03:25 -1.8 °C -3.3 °C 1011.7 hPa North 8 km/h 19.3 km/h 90 % 0 mm
03:40 -1.8 °C -3.3 °C 1011.4 hPa North 14.5 km/h 24.1 km/h 89 % 0 mm
03:55 -1.8 °C -3.3 °C 1011.7 hPa North 4.8 km/h 25.7 km/h 88 % 0 mm
04:10 -1.7 °C -3.3 °C 1012.1 hPa North 9.7 km/h 25.7 km/h 88 % 0 mm
04:40 -1.8 °C -3.3 °C 1013.1 hPa North 12.9 km/h 19.3 km/h 88 % 0 mm
04:55 -1.8 °C -3.9 °C 1013.1 hPa North 3.2 km/h 20.9 km/h 87 % 0 mm
05:10 -1.9 °C -3.9 °C 1013.4 hPa North 4.8 km/h 19.3 km/h 87 % 0 mm
05:25 -1.9 °C -3.9 °C 1014.1 hPa North 4.8 km/h 14.5 km/h 87 % 0 mm
05:40 -1.9 °C -3.3 °C 1014.4 hPa North 3.2 km/h 17.7 km/h 88 % 0 mm
05:55 -1.9 °C -3.9 °C 1015.1 hPa North 3.2 km/h 19.3 km/h 88 % 0 mm
06:10 -2.2 °C -3.9 °C 1015.5 hPa North 6.4 km/h 25.7 km/h 87 % 0 mm
06:25 -2.3 °C -3.9 °C 1015.5 hPa North 9.7 km/h 22.5 km/h 88 % 0 mm
06:40 -2.4 °C -3.9 °C 1015.8 hPa North 6.4 km/h 19.3 km/h 88 % 0 mm
06:55 -2.4 °C -3.9 °C 1016.1 hPa North 6.4 km/h 22.5 km/h 88 % 0 mm
07:10 -2.4 °C -3.9 °C 1016.5 hPa North 3.2 km/h 20.9 km/h 88 % 0 mm
07:25 -2.6 °C -4.4 °C 1016.8 hPa North 4.8 km/h 22.5 km/h 87 % 0 mm
07:41 -2.8 °C -5 °C 1016.8 hPa North 8 km/h 25.7 km/h 86 % 0 mm
07:56 -3.1 °C -5 °C 1017.2 hPa North 19.3 km/h 20.9 km/h 86 % 0 mm
08:26 -3.6 °C -5.6 °C 1017.8 hPa North 1.6 km/h 24.1 km/h 86 % 0 mm
08:41 -3.5 °C -5.6 °C 1017.8 hPa North 3.2 km/h 14.5 km/h 86 % 0 mm
08:56 -3.4 °C -5 °C 1018.2 hPa North 8 km/h 22.5 km/h 87 % 0 mm
09:11 -3.4 °C -5 °C 1018.5 hPa North 9.7 km/h 25.7 km/h 87 % 0 mm
09:26 -3.4 °C -5 °C 1018.8 hPa North 9.7 km/h 16.1 km/h 87 % 0 mm
09:41 -3.4 °C -5 °C 1019.5 hPa North 8 km/h 17.7 km/h 87 % 0 mm
09:56 -3.4 °C -5.6 °C 1019.5 hPa North 6.4 km/h 20.9 km/h 86 % 0 mm
10:11 -3.3 °C -5.6 °C 1019.9 hPa North 14.5 km/h 27.4 km/h 85 % 0 mm
10:26 -3.2 °C -5.6 °C 1020.2 hPa North 8 km/h 19.3 km/h 84 % 0 mm
10:41 -3.1 °C -5.6 °C 1020.2 hPa North 4.8 km/h 17.7 km/h 84 % 0 mm
10:56 -3.1 °C -5.6 °C 1020.5 hPa North 12.9 km/h 19.3 km/h 83 % 0 mm
11:11 -3.2 °C -5.6 °C 1020.5 hPa North 3.2 km/h 25.7 km/h 82 % 0 mm
11:41 -2.7 °C -5.6 °C 1020.2 hPa North 3.2 km/h 16.1 km/h 81 % 0 mm
11:56 -2.5 °C -5.6 °C 1020.5 hPa North 6.4 km/h 9.7 km/h 80 % 0 mm
12:11 -2.6 °C -5.6 °C 1020.5 hPa North 6.4 km/h 22.5 km/h 79 % 0 mm
12:26 -2.4 °C -5.6 °C 1020.5 hPa North 3.2 km/h 16.1 km/h 80 % 0 mm
12:41 -2.5 °C -5.6 °C 1020.5 hPa North 9.7 km/h 27.4 km/h 79 % 0 mm
12:56 -2.4 °C -5 °C 1020.5 hPa North 9.7 km/h 16.1 km/h 81 % 0 mm
13:11 -2.3 °C -5 °C 1020.5 hPa North 3.2 km/h 9.7 km/h 82 % 0 mm
13:26 -2.3 °C -5 °C 1020.9 hPa North 6.4 km/h 9.7 km/h 82 % 0 mm
13:41 -2.3 °C -5 °C 1020.9 hPa North 3.2 km/h 12.9 km/h 82 % 0 mm
13:56 -2.6 °C -5 °C 1021.2 hPa North 6.4 km/h 16.1 km/h 82 % 0 mm
14:11 -2.6 °C -5 °C 1021.2 hPa North 1.6 km/h 14.5 km/h 82 % 0 mm
14:26 -2.7 °C -5 °C 1021.6 hPa North 3.2 km/h 25.7 km/h 83 % 0 mm
14:57 -2.9 °C -5.6 °C 1021.9 hPa North 3.2 km/h 14.5 km/h 83 % 0 mm
15:12 -2.8 °C -5 °C 1021.9 hPa North 6.4 km/h 12.9 km/h 84 % 0 mm
15:27 -3 °C -5.6 °C 1022.2 hPa North 9.7 km/h 14.5 km/h 83 % 0 mm
15:42 -3.2 °C -5.6 °C 1022.2 hPa North 4.8 km/h 19.3 km/h 83 % 0 mm
15:57 -3.2 °C -5.6 °C 1021.9 hPa North 3.2 km/h 19.3 km/h 84 % 0 mm
16:12 -3.1 °C -5.6 °C 1022.2 hPa North 3.2 km/h 9.7 km/h 84 % 0 mm
16:27 -3.1 °C -5.6 °C 1022.6 hPa North 4.8 km/h 9.7 km/h 84 % 0 mm
16:42 -3.3 °C -5.6 °C 1022.6 hPa North 4.8 km/h 14.5 km/h 83 % 0 mm
16:57 -3.4 °C -6.1 °C 1022.9 hPa North 1.6 km/h 14.5 km/h 83 % 0 mm
17:12 -3.6 °C -6.1 °C 1022.9 hPa North 4.8 km/h 12.9 km/h 83 % 0 mm
17:27 -3.6 °C -6.1 °C 1022.9 hPa Calm   9.7 km/h 84 % 0 mm
17:42 -3.6 °C -5.6 °C 1023.6 hPa North 4.8 km/h 6.4 km/h 85 % 0 mm
18:12 -3.6 °C -5.6 °C 1023.6 hPa North 4.8 km/h 6.4 km/h 85 % 0 mm
18:42 -3.7 °C -6.1 °C 1023.9 hPa North 6.4 km/h 8 km/h 84 % 0 mm
18:57 -3.8 °C -6.1 °C 1023.9 hPa North 4.8 km/h 9.7 km/h 85 % 0 mm
19:12 -3.9 °C -6.1 °C 1023.9 hPa North 6.4 km/h 14.5 km/h 85 % 0 mm
19:27 -3.9 °C -6.1 °C 1023.9 hPa Calm   14.5 km/h 85 % 0 mm
19:42 -3.9 °C -6.1 °C 1024.3 hPa North 3.2 km/h 8 km/h 85 % 0 mm
19:57 -3.9 °C -6.1 °C 1024.3 hPa North 4.8 km/h 8 km/h 86 % 0 mm
20:12 -3.9 °C -6.1 °C 1024.3 hPa Calm   6.4 km/h 86 % 0 mm
20:42 -3.8 °C -5.6 °C 1024.3 hPa North 3.2 km/h 9.7 km/h 87 % 0 mm
20:57 -3.8 °C -5.6 °C 1024.6 hPa Calm   4.8 km/h 87 % 0 mm
21:12 -3.8 °C -5.6 °C 1024.3 hPa Calm   4.8 km/h 87 % 0 mm
21:27 -3.8 °C -5.6 °C 1024.3 hPa Calm   4.8 km/h 87 % 0 mm
21:42 -3.8 °C -5.6 °C 1024.3 hPa Calm   3.2 km/h 87 % 0 mm
21:57 -3.8 °C -5.6 °C 1024.6 hPa Calm   3.2 km/h 87 % 0 mm
22:12 -3.8 °C -5.6 °C 1024.6 hPa North 1.6 km/h 4.8 km/h 87 % 0 mm
22:28 -3.8 °C -5.6 °C 1024.6 hPa Calm   3.2 km/h 87 % 0 mm
22:42 -3.8 °C -5.6 °C 1024.6 hPa Calm   3.2 km/h 87 % 0 mm
22:57 -3.7 °C -5.6 °C 1024.6 hPa Calm   4.8 km/h 87 % 0 mm
23:12 -3.7 °C -5.6 °C 1024.6 hPa Calm   3.2 km/h 88 % 0 mm
23:27 -3.7 °C -5.6 °C 1024.6 hPa Calm   6.4 km/h 88 % 0 mm
23:42 -3.7 °C -5.6 °C 1024.6 hPa Calm   4.8 km/h 88 % 0 mm
23:57 -3.7 °C -5.6 °C 1024.6 hPa North 1.6 km/h 4.8 km/h 88 % 0 mm
Des Moines Weather and Climate
Compliments of Weather Underground - 2.75 mb

Script developed by  Jim McMurry - jmcmurry@mwt.net Adapted for the template by  Wim van der Kuil - Leuven-Template.eu

You find our weather info also at:

Weather Underground

Equipment we use:

Weather-station
Davis VP2 Plus

Weather-program
Davis Weatherlink.Com

Weather-server
iMac (Retina 4K, 21.5-inch, Late 2015)

Provider
Hostmonster.com

Davis VP2 Plus

Davis Weatherlink.Com

iMac (Retina 4K, 21.5-inch, Late 2015)

Hostmonster.com